Weather in Cagayan de Oro

Philippines     8°29′34″N   124°38′36″E
temp.,
°C
wind,
m/s
gust,
m/s
humid.,
%
clouds,
%
prec.,
mm/h
press.,
hPa
HPBL,
m
11 april, sun
sun1123:00+24se228759 1.2 1013106
02:00+23se229099 3.9 101291
05:00+23se238694 0.2 1013106
08:00+27se007181 0.2 1014362
11:00+28nw3267100 0.0 1013748
14:00+28nw4370100 0.1 1011758
17:00+26nnw117531 0.2 1010299
20:00+25sse1283100 0.6 1012113
12 april, mon
mon1223:00+24se228412 0.1 101392
02:00+23se2283100 0.1 101193
05:00+23sse2283100 0.0 101299
08:00+26sse1171100 0.0 1013336
11:00+28nnw3265100 0.1 1012830
14:00+27n3375100 0.4 1010551
17:00+27nnw127616 0.5 1010429
20:00+25se2286100 0.6 101281
13 april, tue
tue1323:00+24se2285100 0.0 101284
02:00+23se2285100 0.0 101093
05:00+23se228397 0.0 101097
08:00+26se117185 0.0 1011294
11:00+28nnw3262100 0.0 1010877
14:00+27nnw2272100 0.0 1009482
17:00+26nne0175100 0.1 1009157
20:00+25se228089 0.1 101180
14 april, wed
wed1423:00+24se2281100 0.0 101187
02:00+24se228191 0.0 100986
05:00+23se2282100 0.0 100993
08:00+27sse116784 0.0 1011376
11:00+28nnw2265100 0.0 1010743
14:00+28nnw3367100 0.1 1008727
17:00+27n1172100 0.1 1008251
20:00+25se2278100 0.4 101081
15 april, thu
thu1523:00+24se2281100 0.0 101088
02:00+24se228273 0.1 1009103
05:00+23se228298 0.0 1009102
08:00+27wsw116594 0.0 1010466
11:00+29nnw426352 0.0 1009983
14:00+28nnw336774 0.4 1008823
17:00+26n117774 0.4 1008237
20:00+25se2283100 0.8 101078